Change the Weather History Date:

Sunday, October 13, 2013

  Actual Average Record
Temperature  
Mean Temperature 53 °F -  
Max Temperature 68 °F 68 °F 90 °F (1975)
Min Temperature 39 °F 41 °F 26 °F (1986)
Degree Days  
Heating Degree Days 12    
Growing Degree Days 3 (Base 50)    
Moisture  
Dew Point 33 °F    
Average Humidity 46    
Maximum Humidity 76    
Minimum Humidity 21    
Precipitation  
Precipitation 0.00 in - - ()
Sea Level Pressure  
Sea Level Pressure 30.26 in    
Wind  
Wind Speed 11 mph (SE)    
Max Wind Speed 25 mph    
Max Gust Speed 33 mph    
Visibility 10 miles    
Events Thunderstorm    
Averages and records for this station are not official NWS values.
T = Trace of Precipitation, MM = Missing Value Source: NWS Daily Summary

Daily Weather History Graph

Daily Weather History Graph

Search for Another Location

Airport or City:

Trip Planner

Search our weather history database for the weather conditions in past years. The results will help you decide how hot, cold, wet, or windy it might be!

Date:

Astronomy

Oct. 13, 2013 Rise Set
Actual Time 7:46 AM CDT 6:59 PM CDT
Civil Twilight 7:19 AM CDT 7:27 PM CDT
Nautical Twilight 6:47 AM CDT 7:58 PM CDT
Astronomical Twilight 6:15 AM CDT 8:30 PM CDT
Moon 3:53 PM CDT (10/13) 1:57 AM CDT (10/13)
Length of Visible Light 12h 08m
Length of Day
11h 13m
Waxing Gibbous, 69% of the Moon is Illuminated
Oct 13
Waxing Gibbous
Oct 18
Full
Oct 26
Last Quarter
Nov 3
New
Nov 9
First Quarter

Hourly Weather History & Observations

Time (CDT) Temp. Windchill Dew Point Humidity Pressure Visibility Wind Dir Wind Speed Gust Speed Precip Events Conditions
12:15 AM 49.6 °F - 40.8 °F 72% 30.28 in 10.0 mi ESE 5.8 mph - N/A   Overcast
12:35 AM 49.1 °F - 41.4 °F 75% 30.28 in 10.0 mi ESE 5.8 mph - N/A   Overcast
12:55 AM 50.5 °F - 39.6 °F 66% 30.28 in 10.0 mi ESE 8.1 mph - N/A   Overcast
1:15 AM 50.9 °F - 37.2 °F 59% 30.28 in 10.0 mi ESE 8.1 mph - N/A   Overcast
1:35 AM 48.4 °F - 36.5 °F 64% 30.29 in 10.0 mi SE 6.9 mph - N/A   Mostly Cloudy
1:55 AM 48.2 °F - 36.7 °F 64% 30.30 in 10.0 mi SE 6.9 mph - N/A   Mostly Cloudy
2:15 AM 48.6 °F - 37.4 °F 65% 30.30 in 10.0 mi SE 6.9 mph - N/A   Overcast
2:35 AM 48.6 °F - 37.6 °F 66% 30.30 in 10.0 mi SE 5.8 mph - N/A   Overcast
2:55 AM 48.0 °F - 37.9 °F 68% 30.30 in 10.0 mi ESE 5.8 mph - N/A   Overcast
3:15 AM 48.6 °F - 37.8 °F 66% 30.30 in 10.0 mi SE 6.9 mph - N/A   Overcast
3:35 AM 49.3 °F - 37.0 °F 63% 30.30 in 10.0 mi SE 4.6 mph - N/A   Overcast
3:55 AM 49.1 °F - 37.2 °F 64% 30.29 in 10.0 mi SE 4.6 mph - N/A   Overcast
4:15 AM 48.7 °F - 36.0 °F 61% 30.29 in 10.0 mi SE 6.9 mph - N/A   Overcast
4:35 AM 46.8 °F - 34.9 °F 63% 30.29 in 10.0 mi SE 8.1 mph - N/A   Scattered Clouds
4:55 AM 46.0 °F 41.9 °F 34.7 °F 65% 30.29 in 10.0 mi SE 8.1 mph - N/A   Mostly Cloudy
5:15 AM 43.9 °F 39.3 °F 34.2 °F 69% 30.29 in 10.0 mi ESE 8.1 mph - N/A   Scattered Clouds
5:35 AM 42.3 °F 37.3 °F 33.8 °F 72% 30.29 in 10.0 mi ESE 8.1 mph - N/A   Clear
5:55 AM 42.3 °F 37.9 °F 33.3 °F 70% 30.29 in 10.0 mi SE 6.9 mph - N/A   Clear
6:15 AM 41.9 °F 38.2 °F 32.5 °F 69% 30.29 in 10.0 mi SE 5.8 mph - N/A   Clear
6:35 AM 43.2 °F 40.5 °F 32.4 °F 66% 30.30 in 10.0 mi SSE 4.6 mph - N/A   Clear
6:55 AM 43.3 °F 39.2 °F 32.0 °F 64% 30.30 in 10.0 mi SSE 6.9 mph - N/A   Clear
7:15 AM 42.8 °F 38.6 °F 32.2 °F 66% 30.31 in 10.0 mi SSE 6.9 mph - N/A   Clear
7:35 AM 41.7 °F 37.3 °F 32.0 °F 68% 30.32 in 10.0 mi SE 6.9 mph - N/A   Clear
7:55 AM 39.0 °F 34.0 °F 32.0 °F 76% 30.33 in 10.0 mi ESE 6.9 mph - N/A   Clear
8:15 AM 39.6 °F 35.4 °F 32.5 °F 76% 30.34 in 10.0 mi ESE 5.8 mph - N/A   Clear
8:35 AM 41.4 °F 36.8 °F 33.8 °F 74% 30.34 in 10.0 mi ESE 6.9 mph - N/A   Clear
8:55 AM 43.9 °F 39.9 °F 34.2 °F 69% 30.34 in 10.0 mi SE 6.9 mph - N/A   Clear
9:15 AM 45.5 °F 41.3 °F 34.2 °F 65% 30.35 in 10.0 mi SE 8.1 mph - N/A   Clear
9:35 AM 48.6 °F - 34.7 °F 59% 30.35 in 10.0 mi SSE 10.4 mph - N/A   Clear
9:55 AM 52.3 °F - 34.3 °F 50% 30.35 in 10.0 mi SSE 13.8 mph - N/A   Clear
10:15 AM 54.5 °F - 34.0 °F 46% 30.35 in 10.0 mi SE 15.0 mph - N/A   Clear
10:55 AM 58.1 °F - 32.0 °F 37% 30.35 in 10.0 mi SSE 18.4 mph - N/A   Clear
11:15 AM 59.2 °F - 31.6 °F 35% 30.35 in 10.0 mi SSE 19.6 mph 24.2 mph N/A   Clear
11:35 AM 59.2 °F - 31.6 °F 35% 30.35 in 10.0 mi SSE 18.4 mph 25.3 mph N/A   Clear
11:55 AM 59.9 °F - 32.0 °F 35% 30.35 in 10.0 mi South 19.6 mph 25.3 mph N/A   Clear
12:15 PM 61.7 °F - 32.0 °F 33% 30.34 in 10.0 mi SSE 20.7 mph 26.5 mph N/A   Clear
12:35 PM 61.3 °F - 30.0 °F 31% 30.34 in 10.0 mi SSE 21.9 mph 26.5 mph N/A   Clear
12:55 PM 63.1 °F - 30.2 °F 29% 30.33 in 10.0 mi South 20.7 mph 28.8 mph N/A   Clear
1:15 PM 64.2 °F - 30.0 °F 28% 30.32 in 10.0 mi SSE 25.3 mph 32.2 mph N/A   Clear
1:35 PM 63.9 °F - 29.1 °F 27% 30.30 in 10.0 mi SSE 23.0 mph 32.2 mph N/A   Clear
1:55 PM 64.6 °F - 29.8 °F 27% 30.29 in 10.0 mi SSE 20.7 mph 28.8 mph N/A   Clear
2:15 PM 65.8 °F - 29.7 °F 26% 30.27 in 10.0 mi SE 23.0 mph 28.8 mph N/A   Clear
2:35 PM 66.2 °F - 28.9 °F 25% 30.26 in 10.0 mi SSE 24.2 mph 32.2 mph N/A   Clear
2:55 PM 66.9 °F - 29.7 °F 25% 30.24 in 10.0 mi South 21.9 mph 29.9 mph N/A   Clear
3:15 PM 67.1 °F - 27.7 °F 23% 30.23 in 10.0 mi SE 21.9 mph 32.2 mph N/A   Clear
3:35 PM 67.1 °F - 26.2 °F 21% 30.22 in 10.0 mi SSE 23.0 mph 33.4 mph N/A   Clear
3:55 PM 67.6 °F - 26.8 °F 22% 30.21 in 10.0 mi SSE 20.7 mph 27.6 mph N/A   Clear
4:15 PM 65.7 °F - 27.3 °F 24% 30.20 in 10.0 mi SE 19.6 mph 26.5 mph N/A   Clear
4:35 PM 66.6 °F - 27.5 °F 23% 30.20 in 10.0 mi SSE 19.6 mph 26.5 mph N/A   Clear
4:55 PM 67.1 °F - 28.4 °F 23% 30.19 in 10.0 mi SSE 20.7 mph 29.9 mph N/A   Clear
5:15 PM 66.6 °F - 30.0 °F 26% 30.19 in 10.0 mi SSE 21.9 mph 27.6 mph N/A   Mostly Cloudy
5:35 PM 66.4 °F - 29.5 °F 25% 30.19 in 10.0 mi SSE 18.4 mph 26.5 mph N/A   Mostly Cloudy
5:55 PM 64.4 °F - 28.8 °F 26% 30.19 in 10.0 mi SE 17.3 mph 23.0 mph N/A   Scattered Clouds
6:15 PM 64.4 °F - 28.6 °F 26% 30.19 in 10.0 mi SE 15.0 mph - N/A   Mostly Cloudy
6:35 PM 64.0 °F - 28.6 °F 26% 30.18 in 10.0 mi SE 17.3 mph - N/A   Overcast
6:55 PM 63.5 °F - 29.1 °F 27% 30.18 in 10.0 mi SE 13.8 mph - N/A   Overcast
7:15 PM 62.8 °F - 30.0 °F 29% 30.18 in 10.0 mi SE 15.0 mph - N/A   Overcast
7:35 PM 61.7 °F - 30.6 °F 31% 30.18 in 10.0 mi SE 12.7 mph - N/A   Mostly Cloudy
7:55 PM 61.2 °F - 31.1 °F 32% 30.18 in 10.0 mi SE 15.0 mph - N/A   Mostly Cloudy
8:15 PM 60.3 °F - 31.5 °F 34% 30.18 in 10.0 mi SE 16.1 mph - N/A   Overcast
8:35 PM 60.1 °F - 32.0 °F 35% 30.18 in 10.0 mi SE 16.1 mph 21.9 mph N/A   Mostly Cloudy
8:55 PM 59.2 °F - 32.5 °F 37% 30.19 in 10.0 mi SE 15.0 mph - N/A   Overcast
9:15 PM 59.0 °F - 33.1 °F 38% 30.19 in 10.0 mi SE 15.0 mph - N/A   Overcast
9:35 PM 59.2 °F - 32.5 °F 37% 30.18 in 10.0 mi SE 21.9 mph 25.3 mph N/A Thunderstorm Mostly Cloudy
9:55 PM 58.1 °F - 33.3 °F 39% 30.18 in 10.0 mi SE 20.7 mph 26.5 mph N/A   Mostly Cloudy
10:15 PM 57.6 °F - 33.8 °F 41% 30.17 in 10.0 mi SE 17.3 mph 27.6 mph N/A Thunderstorm Thunderstorm
10:35 PM 57.7 °F - 33.8 °F 41% 30.17 in 10.0 mi SE 19.6 mph 28.8 mph N/A   Mostly Cloudy
10:55 PM 57.7 °F - 34.2 °F 41% 30.16 in 10.0 mi SE 19.6 mph 25.3 mph N/A   Mostly Cloudy
11:15 PM 57.6 °F - 34.7 °F 42% 30.16 in 10.0 mi SE 17.3 mph - N/A Thunderstorm Mostly Cloudy
11:35 PM 57.4 °F - 34.7 °F 43% 30.16 in 10.0 mi SSE 18.4 mph - N/A   Mostly Cloudy
11:55 PM 58.6 °F - 34.7 °F 41% 30.16 in 10.0 mi SSE 19.6 mph 26.5 mph N/A Thunderstorm Overcast